Regional Weather Roundup
Issued by NWS

Home | Current Version | Previous Version | Graphics & Text | Print | Product List | Glossary On
Versions: 1 2 3 4 5 6 7 8 9 10 11 12 13 14 15 16 17 18 19 20 21 22 23 24 25 26 27 28 29 30 31 32 33 34 35 36 37 38 39 40 41 42 43 44 45 46 47 48 49 50
000
ASUS45 KBOU 230607
RWRCO

WEATHER ROUNDUP FOR COLORADO
NATIONAL WEATHER SERVICE DENVER/BOULDER CO
1200 AM MDT SUN JUL 23 2017

NOTE: "FAIR" INDICATES FEW OR NO CLOUDS BELOW 12000 FEET WITH NO
SIGNIFICANT WEATHER AND/OR OBSTRUCTIONS TO VISIBILITY.

COZ001>005-013-030-031-230700-
...NORTHWEST COLORADO...

CITY           SKY/WX    TMP DP  RH WIND       PRES   REMARKS
CRAIG          FAIR      56  47  71 CALM      30.25S
HAYDEN         FAIR     N/A N/A N/A N3        30.28S
MEEKER         FAIR      62  40  44 E7        30.27R
RABBIT EARS PA FAIR      55  30  38 NE9G16    30.60S
STEAMBOAT SPGS FAIR      59  38  45 CALM      30.31S
WALDEN         FAIR      55  36  47 S3        30.43S
$$

COZ006>008-011-230700-
...WEST CENTRAL VALLEYS...

CITY           SKY/WX    TMP DP  RH WIND       PRES   REMARKS
GRAND JUNCTION FAIR      77  50  38 E15       30.12R
MONTROSE       FAIR      71  46  40 E9        30.24R
EAGLE          FAIR      64  45  49 CALM      30.31R
RIFLE          FAIR      68  39  34 SE6       30.18R
DELTA          FAIR      74  47  38 NE7       30.19S
NUCLA          FAIR      68  48  49 E9        30.26R
$$

COZ017>023-064>068-230700-
...SOUTHWEST COLORADO...

CITY           SKY/WX    TMP DP  RH WIND       PRES   REMARKS
DURANGO        FAIR      60  52  74 SW5       30.28F
CORTEZ         FAIR      60  52  74 S7        30.23R
PAGOSA SPRINGS FAIR      63  47  55 N9        30.37F
TELLURIDE      FAIR      59  45  59 SE6       30.49S
WOLF CREEK PAS MOCLDY    43  43 100 NE9       30.72F
$$

COZ009-010-012-014-032>034-037-058>063-230700-
...CENTRAL COLORADO...

CITY           SKY/WX    TMP DP  RH WIND       PRES   REMARKS
ASPEN          FAIR      60  47  61 SW10      30.37R
BUENA VISTA    FAIR      54  50  86 W5        30.45F
COPPER MTN     FAIR      54  36  50 SW5       30.72S
BERTHOUD PASS  FAIR      45  32  61 S14       30.75S
COTTONWOOD PAS FAIR      54  45  71 N5        30.57F
GUNNISON       NOT AVBL
KREMMLING      FAIR      59  43  55 CALM      30.37S
LEADVILLE      FAIR      48  45  89 CALM      30.56F
MONARCH PASS   FAIR      46  36  66 E5        30.81S
SALIDA         FAIR      58  53  84 W6        30.49F
SUNLIGHT       FAIR      52  28  40 NE3       30.64R
WILKERSON PASS FAIR      48  37  66 W6        30.69F
$$

COZ069>075-230700-
...SAN LUIS VALLEY/SANGRE DE CRISTO MOUNTAINS...

CITY           SKY/WX    TMP DP  RH WIND       PRES   REMARKS
ALAMOSA        FAIR      58  51  78 N6        30.39F
DEL NORTE      FAIR      57  49  74 W14       30.42F
LA VETA PASS   NOT AVBL
SAGUACHE         N/A    N/A N/A N/A MISG        N/A
$$

COZ035-036-038>040-230700-
...NORTHERN COLORADO FRONT RANGE...

CITY           SKY/WX    TMP DP  RH WIND       PRES   REMARKS
DENVER INTL AP MOCLDY    70  56  61 S14       30.18S
DMNS CITY PARK   N/A     73  51  45 E8        30.19R
AURORA         MOCLDY    69  55  61 S9        30.21S
FRONT RANGE AP FAIR      72  57  60 SE12      30.21S
ERIE MUNI ARPT FAIR      68  53  59 W5        30.18R
BOULDER MUN AP FAIR      70  48  46 N7        30.19R
CENTENNIAL     MOCLDY    70  54  56 S8        30.22S
BROOMFIELD     FAIR      72  48  43 N10       30.22R
FORT COLLINS   FAIR      69  53  56 N8        30.20R
LONGMONT       FAIR      72  53  51 N6        30.19R
$$

COZ041-046-047-076>085-087-088-230700-
...PIKES PEAK/PALMER DIVIDE AND SOUTHERN FOOTHILLS...

CITY           SKY/WX    TMP DP  RH WIND       PRES   REMARKS
COLO. SPRINGS  MOCLDY    69  56  62 NE10      30.28S
A. F. ACADEMY  FAIR      62  53  72 N6        30.30S
SCHRIEVER AFB  FAIR      64  56  74 MISG      30.29S
CHEYENNE MTN   MOCLDY    68  50  51 CALM      30.27F
ELLICOTT       FAIR     N/A N/A N/A E10       30.26F
FALCON           N/A     62  55  76 E3        30.34S
FORT CARSON    FAIR      65  58  78 NW6       30.24S
LIMON          FAIR      60  56  86 CALM      30.24S
MONUMENT HILL  FAIR      59  52  77 SW6       30.34F
CANON CITY     CLEAR     68  55  64 W12       30.21S
WALSENBURG     FAIR      68  52  56 SW5       30.25S
TRINIDAD       FAIR      68  53  58 SW8       30.23R
$$

COZ042>045-048>051-090-091-230700-
...NORTHEAST COLORADO...

CITY           SKY/WX    TMP DP  RH WIND       PRES   REMARKS
GREELEY ARPT   FAIR      68  55  63 E7        30.17R
AKRON          FAIR      65  56  72 SE8       30.19R
BURLINGTON     FAIR      61  55  81 CALM      30.15F
WRAY           NOT AVBL
YUMA           FAIR      61  48  63 SW7       30.15S
STERLING       FAIR      68  55  64 CALM      30.14S
HOLYOKE        FAIR      63  57  82 CALM      30.14S
FORT MORGAN    FAIR      66  52  60 SE3       30.18R
$$

COZ086-089-092>099-230700-
...SOUTHEAST COLORADO...

CITY           SKY/WX    TMP DP  RH WIND       PRES   REMARKS
PUEBLO         FAIR      73  55  53 CALM      30.16S
LA JUNTA       FAIR      74  58  57 SE6       30.13F
LAMAR          FAIR      69  58  67 NE3       30.10S
SPRINGFIELD      N/A     68  56  65 E6        30.14F
$$



USA.gov is the U.S. government's official web portal to all federal, state and local government web resources and services.